Weather Roundup
Issued by NWS

Home | Current Version | Previous Version | Text Only | Print | Product List | Glossary On
Versions: 1 2 3 4 5 6 7 8 9 10 11 12 13 14 15 16 17 18 19 20 21 22 23 24 25 26 27 28 29 30 31 32 33 34 35 36 37 38 39 40 41 42 43 44 45 46 47 48 49 50
000
NZUS93 KARX 301910
HRRWXR

CURRENT HOURLY OBSERVATIONS ACROSS
MUCH OF THE UPPER MISSISSIPPI VALLEY
NATIONAL WEATHER SERVICE LA CROSSE WI
200 PM CDT WED JUL 30 2014


...SOUTHEAST MINNESOTA...


CITY           SKY/WX    TMP DP  RH WIND       PRES   REMARKS
ROCHESTER      MOSUNNY   77  59  53 N7        30.10F
ROCHESTER/MAYO FAIR      75  55  49 NW8       30.08F
WINONA         SUNNY     77  57  50 N6        30.06F
AUSTIN         MOSUNNY   75  57  53 N6        30.09S
ALBERT LEA     MOSUNNY   79  55  44 NW5       30.10S
DODGE CENTER   MOSUNNY   75  57  53 N8        30.09S
PRESTON        PTSUNNY   73  64  71 N8        30.09S
OWATONNA       SUNNY     79  55  44 NW13      30.09S
FARIBAULT      PTSUNNY   81  52  36 NW8       30.09S
$$

...ELSEWHERE IN MINNESOTA...


CITY           SKY/WX    TMP DP  RH WIND       PRES   REMARKS
MINNEAPOLIS    MOSUNNY   81  54  39 W9G20     30.06F
INTNL FALLS    PTSUNNY   77  57  50 NW13      30.01F
DULUTH         PTSUNNY   76  60  57 NW14      30.01F
RED WING       MOSUNNY   79  59  50 NW7       30.05F
REDWOOD FALLS  SUNNY     79  53  40 VRB5      30.11F
MANKATO        PTSUNNY   77  54  44 N8        30.09F
WORTHINGTON    SUNNY     73  52  46 N7        30.16S
FAIRMONT       SUNNY     79  54  41 N8        30.12S
$$

...SOUTHWEST WISCONSIN...


CITY           SKY/WX    TMP DP  RH WIND       PRES   REMARKS
LA CROSSE      SUNNY     76  58  53 NW7       30.06F
PRAIRIE DU CHI MOSUNNY   77  53  43 N8        30.06S
BOSCOBEL       SUNNY     81  53  37 N9        30.05F
LONE ROCK      MOSUNNY   80  56  43 VRB6      30.05S
PLATTEVILLE    PTSUNNY   77  56  48 NW9       30.07S
FORT MC COY    MOSUNNY   71  55  55 W5        30.07F
CAMP DOUGLAS   MOSUNNY   73  57  56 NW10      30.06F
VIROQUA        FAIR      73  55  53 NW9       30.08S
WIS DELLS      MOSUNNY   72  52  48 W5        30.06S
$$

...ELSEWHERE IN WISCONSIN...


CITY           SKY/WX    TMP DP  RH WIND       PRES   REMARKS
MILWAUKEE      MOSUNNY   68  58  70 E8        30.05S
MADISON        MOSUNNY   74  56  53 N9        30.05F
GREEN BAY      SUNNY     72  52  49 NW5       30.02F
EAU CLAIRE     MOSUNNY   74  55  51 VRB5      30.05F
BLACK RVR FLS  FAIR      73  53  48 CALM      30.06F
MEDFORD        SUNNY     69  50  51 W3        30.06F
WAUSAU         SUNNY     71  47  42 N9        30.03F
WIS RAPIDS     MOSUNNY   75  47  36 VRB7      30.06F
MARSHFIELD     MOSUNNY   74  51  44 N10       30.06F
RICE LAKE      SUNNY     73  56  55 W6        30.07F
$$

...NORTHEAST IOWA...


CITY           SKY/WX    TMP DP  RH WIND       PRES   REMARKS
WATERLOO       MOSUNNY   81  57  43 N12       30.07F
DUBUQUE        MOSUNNY   76  59  55 NW7       30.07F
DECORAH        MOSUNNY   75  59  57 VRB7      30.07F
MASON CITY     MOSUNNY   78  57  48 NW9       30.11F
CHARLES CITY   MOSUNNY   77  59  53 NW7G15    30.10S
OELWEIN        MOSUNNY   77  59  53 NW8       30.09S
$$

...ELSEWHERE IN IOWA...


CITY           SKY/WX    TMP DP  RH WIND       PRES   REMARKS
DES MOINES     MOSUNNY   81  54  39 VRB3      30.10F
IOWA CITY      SUNNY     78  58  49 NW8       30.08F
FORT DODGE     MOSUNNY   75  55  50 CALM      30.12F
MARSHALLTOWN   MOSUNNY   78  56  46 NW9       30.10S
CEDAR RAPIDS   MOSUNNY   78  59  51 W10       30.07F
$$

...NORTHERN ILLINOIS...


CITY           SKY/WX    TMP DP  RH WIND       PRES   REMARKS
CHICAGO-OHARE  PTSUNNY   78  53  41 NW12G17   30.01F
DUPAGE         MOSUNNY   78  56  46 W8        30.03S
CHICAGO-MIDWAY PTSUNNY   80  54  40 N7        30.01F
MOLINE         MOSUNNY   81  59  47 NW7       30.05F
ROCKFORD       MOSUNNY   78  58  49 W12       30.05F
STERLING       SUNNY     79  61  53 NW7       30.05F
PEORIA         PTSUNNY   80  57  45 NW8       30.06F
$$

NOTE: "FAIR" INDICATES FEW OR NO CLOUDS BELOW 12,000 FEET WITH NO
SIGNIFICANT WEATHER AND/OR OBSTRUCTIONS TO VISIBILITY. WIND
SPEEDS ARE IN MILES-PER-HOUR.



USA.gov is the U.S. government's official web portal to all federal, state and local government web resources and services.